Location: Namasale
(1.5000°N, 32.6167°E)
Time: 01:26:43
(UTC+00:00)

Vanguard 3 - Visible Passes

Search period start: 01 December 2021 00:00
Search period end: 11 December 2021 00:00
Orbit: 509 x 3260 km, 33.3° (Epoch: 30 November)

Date Brightness Start Highest point End Pass type
(mag) Time Alt. Az. Time Alt. Az. Time Alt. Az.
01 Dec 10.2 01:36:58 38° NW 01:40:46 40° NNW 01:57:16 10° NNE visible
01 Dec 10.5 19:41:43 10° S 19:45:51 19° SSE 19:45:51 19° SSE visible
01 Dec 11.2 22:23:05 15° ENE 22:23:05 15° ENE 22:25:06 10° ENE visible
02 Dec 10.2 00:27:41 48° N 00:27:41 48° N 00:41:34 10° NE visible
02 Dec 10.7 02:32:18 18° WNW 02:41:55 26° NNW 02:55:02 10° NNE visible
02 Dec 10.6 20:37:32 10° SSW 20:39:30 18° SSW 20:39:30 18° SSW visible
02 Dec 10.9 23:18:12 28° NE 23:18:12 28° NE 23:24:56 10° NE visible
03 Dec 10.3 01:22:47 36° NNW 01:23:13 36° NNW 01:39:44 10° NNE visible
03 Dec 10.3 19:24:50 10° S 19:28:45 20° SSE 19:28:45 20° SSE visible
03 Dec11.222:08:35ENE22:08:35ENE21:33:14SWvisible
04 Dec 10.5 00:13:09 36° NNE 00:13:09 36° NNE 00:23:44 10° NE visible
04 Dec 10.7 02:17:43 20° NW 02:24:49 24° NNW 02:37:55 10° NNE visible
04 Dec 10.5 18:15:45 10° SSE 18:17:25 10° SE 18:18:04 10° SE visible
04 Dec 10.5 20:20:42 10° SSW 20:22:34 18° SSW 20:22:34 18° SSW visible
04 Dec 11.2 23:03:22 18° NE 23:03:22 18° NE 23:06:54 10° NE visible
05 Dec 10.5 01:07:56 32° NNW 01:07:56 32° NNW 01:22:08 10° NNE visible
05 Dec 10.9 03:16:06 10° NW 03:27:19 18° N 03:36:54 10° NNE visible
05 Dec 10.1 19:08:00 10° SSW 19:11:57 22° SSE 19:11:57 22° SSE visible
05 Dec11.121:53:28NE21:53:28NE21:16:27SWvisible
05 Dec 10.8 23:58:02 27° NNE 23:58:02 27° NNE 00:05:47 10° NE visible
06 Dec 10.8 02:02:35 20° NW 02:07:49 23° NNW 02:20:49 10° NNE visible
06 Dec 10.3 17:58:05 10° SSE 18:00:39 11° SE 18:01:24 11° SE visible
06 Dec 10.4 20:03:58 10° SW 20:05:54 19° SSW 20:05:54 19° SSW visible
06 Dec 11.4 22:48:02 12° NE 22:48:02 12° NE 22:48:45 10° NE visible
07 Dec 10.7 00:52:34 28° N 00:52:34 28° N 01:04:27 10° NNE visible
07 Dec 11.0 02:59:06 10° NW 03:10:40 18° N 03:20:43 10° NNE visible
07 Dec 9.8 18:51:14 10° SSW 18:55:24 25° SSE 18:55:24 25° SSE visible
07 Dec 11.1 23:42:30 20° NNE 23:42:30 20° NNE 23:47:43 10° NE visible
08 Dec 10.8 01:47:03 20° NNW 01:50:54 21° NNW 02:03:45 10° NNE visible
08 Dec 10.1 17:40:45 10° SSE 17:43:52 12° SE 17:44:57 12° SE visible
08 Dec 10.2 19:47:20 10° SW 19:49:27 21° SW 19:49:27 21° SW visible
09 Dec 10.9 00:36:54 24° N 00:36:54 24° N 00:46:43 10° NNE visible
09 Dec 11.0 02:41:58 10° NW 02:54:02 19° N 03:04:38 10° NE visible
09 Dec 9.5 18:34:32 10° SSW 18:39:03 29° SSE 18:39:03 29° SSE visible
09 Dec 11.3 23:26:43 15° NNE 23:26:43 15° NNE 23:29:32 10° NE visible
10 Dec 10.9 01:31:15 20° NNW 01:34:04 20° N 01:46:45 10° NNE visible
10 Dec 9.9 17:23:37 10° SSE 17:27:03 14° SE 17:28:42 13° SE visible
10 Dec 9.9 19:30:48 10° SW 19:33:13 25° SW 19:33:13 25° SW visible
